15 daagse weersverwachting Leoben (AT)

  • Overzicht
  • Per uur
  • 15 dagen
  • Extra
  • Vergelijk
  • Kaarten
  • Dagkaart
  • Meer »
  • Info
  • Statistieken
  • Directe link
    Temp 6h Neerslag Wind  
 05:04     20:59    Daglengte: 15:55 Vandaag
14:00
27°
 
2
20:00
21°
1.2 mm
1
 05:04     21:00    Daglengte: 15:56 Morgen
02:00
16°
9.6 mm
1
08:00
18°
8.2 mm
1
14:00
22°
9.9 mm
1
20:00
20°
2.6 mm
1
 05:04     21:00    Daglengte: 15:56 Zaterdag 22 Jun
02:00
15°
 
1
08:00
18°
 
1
14:00
21°
13.1 mm
2
warningclass
20:00
18°
75.6 mm
1
 05:05     21:00    Daglengte: 15:55 Zondag 23 Jun
02:00
16°
62.3 mm
1
08:00
18°
66.1 mm
1
Locatie info
Region: Steiermark
Latitude: 47.3816°N
Longitude: 15.0959°E
543 masl
Postcode: 8700
Temp/Neerslag /Baro Onweer/Dauwpunt
    Temp Baro 1h Neerslag Dauwpunt Wind UV Bewolking  
 05:04     20:59    Daglengte: 15:55 Vandaag
12:00
27°
Voelt als: 26.7°
1012.0 hPa   11.5°
1
Windvlaag: -2.1 km/h
12%
13:00
27°
Voelt als: 27.0°
1011.8 hPa
36%
11.4°
2
Windvlaag: -2.2 km/h
11%
14:00
27°
1011.9 hPa
74%
14.5°
2
Windvlaag: -2.3 km/h
16%
15:00
27°
1011.6 hPa
75%
15.6°
1
Windvlaag: -2.1 km/h
34%
16:00
25°
1011.9 hPa 0.4 mm
81%
16.2°
1
Windvlaag: -1.9 km/h
78% warningclass
17:00
24°
1012.2 hPa 0.8 mm
82%
15.5°
1
Windvlaag: 1 km/h
45% warningclass
18:00
23°
1012.3 hPa
76%
15.0°
1
Windvlaag: -0.5 km/h
55%
19:00
23°
1012.6 hPa
30%
16.1°
2
Windvlaag: -0.2 km/h
43%
20:00
21°
1013.2 hPa
36%
18.1°
1
Windvlaag: -0.2 km/h
41%
21:00
20°
1013.6 hPa 1.3 mm
38%
17.2°
1
Windvlaag: -0.2 km/h
50%
22:00
18°
1014.3 hPa 1.8 mm
33%
16.7°
1
Windvlaag: -0.4 km/h
57%
23:00
18°
1014.8 hPa 1.6 mm
81%
16.5°
1
Windvlaag: -0.2 km/h
67%
 05:04     21:00    Daglengte: 15:56 Morgen
00:00
17°
1015.3 hPa 1.5 mm
82%
16.1°
1
Windvlaag: 0.2 km/h
69% warningclass
01:00
16°
1015.4 hPa 1.6 mm
78%
15.6°
1
Windvlaag: 0.5 km/h
50% warningclass
02:00
16°
1015.7 hPa 1.8 mm
82%
15.1°
1
Windvlaag: 0.6 km/h
35%
03:00
15°
1015.8 hPa 2.1 mm
82%
14.8°
1
Windvlaag: 0.5 km/h
32%
04:00
15°
1015.9 hPa 1.7 mm
82%
14.5°
1
Windvlaag: 0.5 km/h
31%
05:00
14°
1016.0 hPa 1.3 mm
69%
13.9°
1
Windvlaag: 0.5 km/h
16%
06:00
15°
1016.4 hPa 1.5 mm
24%
14.7°
1
Windvlaag: 0.5 km/h
19%
07:00
17°
1016.6 hPa 1.6 mm
15%
15.8°
1
Windvlaag: 0.4 km/h
27%
08:00
18°
1016.7 hPa
14%
15.7°
1
Windvlaag: 0.5 km/h
21%
09:00
20°
1016.8 hPa 1.6 mm
67%
15.5°
1
Windvlaag: -0.3 km/h
33%
10:00
21°
1016.8 hPa 1.6 mm
75%
15.6°
1
Windvlaag: -0.7 km/h
36%
11:00
22°
1016.8 hPa 1.4 mm
82%
15.1°
1
Windvlaag: 0.5 km/h
44%
12:00
22°
1016.8 hPa 1.3 mm
82%
14.9°
1
Windvlaag: 0.2 km/h
56%
13:00
22°
1016.6 hPa 2.4 mm
81%
15.4°
1
Windvlaag: 0.2 km/h
54%
14:00
22°
1016.3 hPa 1.6 mm
82%
15.2°
1
Windvlaag: -1.1 km/h
72%
15:00
22°
1016.3 hPa 2.6 mm
82%
14.7°
1
Windvlaag: -1.2 km/h
51% warningclass
16:00
23°
1016.0 hPa
82%
15.6°
1
Windvlaag: -1.6 km/h
50% warningclass
17:00
23°
1015.9 hPa
76%
15.0°
1
Windvlaag: -1.8 km/h
47% warningclass
18:00
23°
1015.7 hPa
67%
15.7°
1
Windvlaag: -2 km/h
50%
19:00
21°
1016.2 hPa
58%
16.6°
1
Windvlaag: -1.8 km/h
58%
20:00
20°
1016.8 hPa
14%
17.2°
1
Windvlaag: -1.2 km/h
65%
21:00
19°
1017.3 hPa
17%
16.1°
1
Windvlaag: -0.7 km/h
55%
22:00
17°
1018.0 hPa
16%
15.9°
1
Windvlaag: -0.2 km/h
33%
23:00
16°
1018.3 hPa
14%
15.3°
1
Windvlaag: 0.1 km/h
44%
 05:04     21:00    Daglengte: 15:56 Zaterdag 22 Jun
00:00
16°
1018.6 hPa
14%
14.8°
1
Windvlaag: 0.5 km/h
46%
01:00
15°
1018.5 hPa
14%
14.3°
1
Windvlaag: 0.6 km/h
42%
02:00
15°
1018.4 hPa
15%
14.0°
1
Windvlaag: 0.7 km/h
45%
03:00
15°
1018.4 hPa
15%
13.7°
1
Windvlaag: 0.9 km/h
46%
04:00
14°
1018.5 hPa
18%
13.7°
1
Windvlaag: 1 km/h
44%
05:00
15°
1018.7 hPa
26%
13.7°
1
Windvlaag: 0.5 km/h
65%
06:00
15°
1018.9 hPa
24%
14.3°
1
Windvlaag: 0.5 km/h
41%
07:00
17°
1019.1 hPa
28%
15.4°
1
Windvlaag: 0.9 km/h
61%
08:00
18°
1019.1 hPa
30%
16.1°
1
Windvlaag: 0.6 km/h
63%
09:00
19°
1018.9 hPa
89%
16.5°
1
Windvlaag: 2.1 km/h
32%
10:00
19°
1018.6 hPa
100%
17.0°
1
Windvlaag: 1.5 km/h
25%
11:00
20°
1018.3 hPa
100%
17.7°
2
Windvlaag: 0.2 km/h
31%
12:00
21°
1018.0 hPa
99%
18.1°
2
Windvlaag: -0.4 km/h
45%
13:00
21°
1017.7 hPa 6.5 mm
100%
17.9°
2
Windvlaag: 3.7 km/h
61% warningclass
14:00
21°
1017.4 hPa 6.7 mm
100%
17.6°
2
Windvlaag: 2.5 km/h
90% warningclass
15:00
20°
1017.2 hPa 6.6 mm
100%
17.8°
2
Windvlaag: 4.4 km/h
93% warningclass
16:00
20°
1017.1 hPa 13.0 mm
60%
17.8°
2
Windvlaag: 5.5 km/h
98%
17:00
19°
1016.9 hPa 13.3 mm
47%
17.6°
2
Windvlaag: 4.6 km/h
98%
18:00
19°
1016.5 hPa 13.1 mm
48%
17.9°
2
Windvlaag: 3.6 km/h
90%
19:00
19°
1016.5 hPa 14.1 mm
44%
17.5°
2
Windvlaag: 3.2 km/h
92%
20:00
18°
1016.4 hPa 15.4 mm
34%
17.4°
1
Windvlaag: -0.1 km/h
92%
21:00
18°
1016.4 hPa 13.9 mm
25%
17.0°
1
Windvlaag: -1.7 km/h
95%
22:00
17°
1016.3 hPa 13.2 mm
74%
16.6°
1
Windvlaag: -1.8 km/h
89%
23:00
17°
1016.3 hPa 8.8 mm
94%
16.4°
1
Windvlaag: -1.4 km/h
98% warningclass
 05:05     21:00    Daglengte: 15:55 Zondag 23 Jun
00:00
17°
1016.3 hPa 8.9 mm
94%
16.3°
1
Windvlaag: -1.1 km/h
95%
01:00
16°
1016.4 hPa 9.2 mm
95%
16.2°
1
Windvlaag: -0.9 km/h
89% warningclass
02:00
16°
1016.3 hPa 8.2 mm
95%
16.0°
1
Windvlaag: -0.8 km/h
93%
03:00
16°
1016.2 hPa 13.1 mm
94%
15.9°
1
Windvlaag: 4.5 km/h
91%
04:00
16°
1016.3 hPa
93%
15.7°
1
Windvlaag: 6.3 km/h
93%
05:00
16°
1016.3 hPa 13.2 mm
92%
15.0°
1
Windvlaag: 6.5 km/h
91%
06:00
16°
1016.5 hPa 13.2 mm
98%
15.3°
1
Windvlaag: 7.3 km/h
90%
07:00
17°
1016.6 hPa 13.4 mm
100%
15.5°
1
Windvlaag: 7.8 km/h
89%
08:00
18°
1016.7 hPa 13.3 mm
100%
15.8°
1
Windvlaag: 1.1 km/h
92%
09:00
19°
1016.4 hPa 38.8 mm
100%
16.6°
2
Windvlaag: 8 km/h
89%
10:00
19°
1016.5 hPa 38.9 mm
100%
16.9°
2
Windvlaag: 7.5 km/h
89%
11:00
20°
1016.7 hPa 38.9 mm
100%
17.2°
2
Windvlaag: 5.4 km/h
90%
Temp/Neerslag /Baro Onweer/Dauwpunt
    Temp Baro Neerslag Dauwpunt Wind Bewolking  
 05:04     20:59    Daglengte: 15:55 Vandaag
14:00
27°
1011.9 hPa   14.5°
2
16%
17:00
24°
1012.2 hPa 1.2 mm 15.5°
1
45% warningclass
20:00
21°
1013.2 hPa   18.1°
1
41%
23:00
18°
1014.8 hPa 4.7 mm 16.5°
1
67%
 05:04     21:00    Daglengte: 15:56 Morgen
02:00
16°
1015.7 hPa 4.9 mm 15.1°
1
35%
05:00
14°
1016.0 hPa 5.1 mm 13.9°
1
16%
08:00
18°
1016.7 hPa 3.1 mm 15.7°
1
21%
11:00
22°
1016.8 hPa 4.6 mm 15.1°
1
44%
14:00
22°
1016.3 hPa 5.4 mm 15.2°
1
72%
17:00
23°
1015.9 hPa 2.6 mm 15.0°
1
47% warningclass
20:00
20°
1016.8 hPa   17.2°
1
65%
23:00
16°
1018.3 hPa   15.3°
1
44%
 05:04     21:00    Daglengte: 15:56 Zaterdag 22 Jun
02:00
15°
1018.4 hPa   14.0°
1
45%
05:00
15°
1018.7 hPa   13.7°
1
65%
08:00
18°
1019.1 hPa   16.1°
1
63%
11:00
20°
1018.3 hPa   17.7°
2
31%
14:00
21°
1017.4 hPa 13.1 mm 17.6°
2
90% warningclass
17:00
19°
1016.9 hPa 32.9 mm 17.6°
2
98%
20:00
18°
1016.4 hPa 42.6 mm 17.4°
1
92%
23:00
17°
1016.3 hPa 35.9 mm 16.4°
1
98% warningclass
 05:05     21:00    Daglengte: 15:55 Zondag 23 Jun
02:00
16°
1016.3 hPa 26.4 mm 16.0°
1
93%
05:00
16°
1016.3 hPa 26.2 mm 15.0°
1
91%
08:00
18°
1016.7 hPa 39.9 mm 15.8°
1
92%
11:00
20°
1016.7 hPa 116.6 mm 17.2°
2
90%
14:00
22°
1017.0 hPa 118.4 mm 18.2°
2
86%
17:00
20°
1018.6 hPa 46.6 mm 17.2°
2
88%
20:00
19°
1019.5 hPa 46.8 mm 16.6°
2
87%
23:00
17°
1020.5 hPa 46.8 mm 15.7°
2
87%
 05:05     21:00    Daglengte: 15:55 Maandag 24 Jun
02:00
16°
1021.4 hPa 46.8 mm 14.9°
2
87%
05:00
17°
1021.8 hPa 46.8 mm 15.1°
2
85%
08:00
18°
1022.4 hPa 46.8 mm 15.6°
2
82%
11:00
22°
1022.1 hPa 46.8 mm 15.6°
2
74%
14:00
24°
1021.8 hPa 46.8 mm 14.7°
3
65%
17:00
23°
1022.5 hPa 46.8 mm 15.2°
2
56%
20:00
21°
1023.3 hPa 46.8 mm 15.7°
1
47%
23:00
18°
1024.2 hPa 46.8 mm 14.5°
1
46%
 05:05     21:00    Daglengte: 15:55 Dinsdag 25 Jun
02:00
14°
1024.9 hPa 46.8 mm 13.1°
1
44%
05:00
17°
1025.2 hPa 46.8 mm 14.0°
1
58%
08:00
20°
1025.6 hPa 46.8 mm 15.0°
0
72%
11:00
23°
1025.1 hPa 46.8 mm 16.1°
1
55%
14:00
26°
1024.5 hPa 46.8 mm 16.7°
2
38%
17:00
25°
1024.6 hPa 46.8 mm 17.9°
1
31%
20:00
24°
1024.8 hPa 46.8 mm 18.9°
1
25%
23:00
20°
1025.8 hPa 46.8 mm 17.5°
1
15%
 05:06     21:00    Daglengte: 15:54 Woensdag 26 Jun
02:00
17°
1026.5 hPa 46.8 mm 15.7°
1
4%
05:00
19°
1026.6 hPa 46.8 mm 16.3°
0
18%
08:00
21°
1026.6 hPa 46.8 mm 17.5°
0
31%
11:00
25°
1025.6 hPa 46.8 mm 17.7°
2
21%
14:00
28°
1024.5 hPa 46.8 mm 17.1°
3
12%
17:00
27°
1023.8 hPa 46.8 mm 18.7°
2
7%
20:00
25°
1023.3 hPa 46.8 mm 20.0°
1
1%
23:00
21°
1023.5 hPa 46.8 mm 18.4°
1
3%
 05:06     21:00    Daglengte: 15:54 Donderdag 27 Jun
02:00
18°
1023.5 hPa 46.8 mm 16.7°
0
5%
05:00
19°
1023.0 hPa 46.8 mm 17.4°
0
14%
08:00
22°
1022.4 hPa 46.8 mm 18.4°
0
22%
11:00
26°
1020.9 hPa   19.4°
1
24%
14:00
30°
1019.4 hPa 93.7 mm 19.2°
2
26%
20:00
26°
1018.7 hPa 93.8 mm 23.8°
1
6%
 05:07     21:00    Daglengte: 15:53 Vrijdag 28 Jun
02:00
18°
1019.6 hPa 93.9 mm 17.5°
1
54%
08:00
24°
1019.2 hPa 93.9 mm 19.9°
1
1%
14:00
34°
Voelt als: 33.5°
1016.5 hPa 93.9 mm 14.5°
1
3%
20:00
29°
1015.7 hPa 93.9 mm 22.1°
1
4%
 05:07     21:00    Daglengte: 15:53 Zaterdag 29 Jun
02:00
20°
1016.5 hPa 93.9 mm 17.9°
1
0%
08:00
21°
1014.8 hPa 93.9 mm 19.2°
1
1%
14:00
28°
1013.3 hPa 94.9 mm 20.8°
1
1%
20:00
24°
1013.5 hPa 99.2 mm 21.7°
1
1%
 05:08     21:00    Daglengte: 15:52 Zondag 30 Jun
02:00
20°
1015.2 hPa 104.0 mm 19.2°
2
1%
08:00
22°
1015.4 hPa 1.9 mm 19.2°
1
35%
14:00
30°
1014.2 hPa 2.3 mm 18.6°
0
35%
20:00
24°
1013.9 hPa 2.9 mm 21.2°
0
53%
 05:08     21:00    Daglengte: 15:52 Maandag 01 Jul
02:00
18°
1014.7 hPa 1.0 mm 17.6°
1
49%
08:00
22°
1014.3 hPa 0.5 mm 19.4°
1
44%
14:00
28°
1012.6 hPa 2.5 mm 19.0°
0
40%
20:00
22°
1012.2 hPa 4.0 mm 20.1°
0
65%
 05:09     20:59    Daglengte: 15:50 Dinsdag 02 Jul
02:00
17°
1013.0 hPa 4.4 mm 16.9°
1
67%
08:00
19°
1012.9 hPa 3.5 mm 17.6°
1
65%
14:00
23°
1012.1 hPa 4.3 mm 17.8°
1
64%
20:00
20°
1012.1 hPa 3.8 mm 18.2°
0
80%
 05:10     20:59    Daglengte: 15:49 Woensdag 03 Jul
02:00
16°
1012.9 hPa 4.2 mm 15.7°
1
85%
08:00
17°
1013.1 hPa 5.8 mm 16.4°
1
82%
14:00
21°
1012.6 hPa 3.9 mm 17.2°
1
74%
20:00
19°
1012.4 hPa 3.2 mm 17.2°
0
81%
 05:10     20:59    Daglengte: 15:49 Donderdag 04 Jul
02:00
15°
1013.4 hPa 2.7 mm 14.5°
1
74%
08:00
17°
1014.2 hPa 1.0 mm 15.7°
1
62%
14:00
22°
1013.4 hPa 1.5 mm 15.4°
0
63%
20:00
19°
1013.6 hPa 2.7 mm 16.9°
0
79%
 05:11     20:58    Daglengte: 15:47 Vrijdag 05 Jul
02:00
15°
1015.1 hPa 0.6 mm 14.2°
1
65%
08:00
17°
1015.6 hPa 0.6 mm 15.8°
1
61%
  CAPE Lifted Index Hail Supercell Tornado SRH 3km CL BTM PRES CL TOP PRES Swiss DWD icon SMHI TS
 05:04     20:59    Daglengte: 15:55 Vandaag
12:00 518 J/kg -2.6 K 0 % 0 % 0 % 0 m²/s² 0 0 -0.08 2
13:00 535 J/kg -2.5 K 0 % 0 % 0 % 0 m²/s² 0 0 -0.04 2
14:00 884 J/kg -3.6 K 0 % 0 % 0 % 0 m²/s² 0 0 -1.2 2
15:00 1352 J/kg -5.1 K 0 % 0 % 0 % 0 m²/s² 0 0 -2.46 3
16:00 1679 J/kg -6.2 K 0 % 0 % 0 % 0 m²/s² 0 0 -4.88 80
17:00 1343 J/kg -5.0 K 0 % 0 % 0 % 0 m²/s² 0 0 -3.32 3
18:00 0 J/kg -4.0 K 0 % 0 % 0 % 0 m²/s² 0 0 -2.71 3
19:00 0 J/kg -1.9 K 0 % 0 % 0 % 0 m²/s² 0 0 -1.9 3
20:00 0 J/kg -3.3 K 0 % 0 % 0 % 0 m²/s² 0 0 -1.98 3
21:00 0 J/kg -2.8 K 0 % 0 % 0 % 0 m²/s² 0 0 -0.76 3
22:00 0 J/kg -2.5 K 0 % 0 % 0 % 0 m²/s² 0 0 -0.64 3
23:00 0 J/kg -1.9 K 0 % 0 % 0 % 0 m²/s² 0 0 0.08 3
 05:04     21:00    Daglengte: 15:56 Morgen
00:00 0 J/kg 0.2 K 0 % 0 % 0 % 0 m²/s² 0 0 1.7 95
01:00 0 J/kg 0.3 K 0 % 0 % 0 % 0 m²/s² 0 0 1.62 95
02:00 0 J/kg 1.0 K 0 % 0 % 0 % 0 m²/s² 0 0 2.02 80
03:00 0 J/kg 1.4 K 0 % 0 % 0 % 0 m²/s² 0 0 2.6 80
04:00 0 J/kg 1.8 K 0 % 0 % 0 % 0 m²/s² 0 0 3.54 45
05:00 0 J/kg 1.1 K 0 % 0 % 0 % 0 m²/s² 0 0 2.6 45
06:00 0 J/kg 1.1 K 0 % 0 % 0 % 0 m²/s² 0 0 2.6 45
07:00 0 J/kg 1.0 K 0 % 0 % 0 % 0 m²/s² 0 0 2.74 2
08:00 0 J/kg 0.3 K 0 % 0 % 0 % 0 m²/s² 0 0 2.43 1
09:00 48 J/kg -0.6 K 0 % 0 % 0 % 0 m²/s² 0 0 1.71 80
10:00 204 J/kg -1.0 K 0 % 0 % 0 % 0 m²/s² 0 0 1.55 2
11:00 328 J/kg -1.0 K 0 % 0 % 0 % 0 m²/s² 0 0 1.46 2
12:00 395 J/kg -1.3 K 0 % 0 % 0 % 0 m²/s² 0 0 1.16 3
13:00 539 J/kg -1.8 K 0 % 0 % 0 % 0 m²/s² 0 0 0.6 3
14:00 645 J/kg -2.2 K 0 % 0 % 0 % 0 m²/s² 0 0 -0.16 80
15:00 774 J/kg -2.8 K 0 % 0 % 0 % 0 m²/s² 0 0 -1.18 95
16:00 892 J/kg -3.2 K 0 % 0 % 0 % 0 m²/s² 0 0 -1.97 95
17:00 976 J/kg -3.8 K 0 % 0 % 0 % 0 m²/s² 0 0 -3.05 95
18:00 1000 J/kg -3.6 K 0 % 0 % 0 % 0 m²/s² 0 0 -3.3 80
19:00 544 J/kg -2.7 K 0 % 0 % 0 % 0 m²/s² 0 0 -2.7 3
20:00 17 J/kg 0.5 K 0 % 0 % 0 % 0 m²/s² 0 0 0.5 3
21:00 0 J/kg -0.5 K 0 % 0 % 0 % 0 m²/s² 0 0 -0.23 3
22:00 0 J/kg -1.6 K 0 % 0 % 0 % 0 m²/s² 0 0 -0.28 2
23:00 0 J/kg -1.8 K 0 % 0 % 0 % 0 m²/s² 0 0 -0.3 3
 05:04     21:00    Daglengte: 15:56 Zaterdag 22 Jun
00:00 0 J/kg -2.1 K 0 % 0 % 0 % 0 m²/s² 0 0 -1.11 3
01:00 0 J/kg -2.6 K 0 % 0 % 0 % 0 m²/s² 0 0 -1.58 3
02:00 0 J/kg -2.5 K 0 % 0 % 0 % 0 m²/s² 0 0 -1.45 3
03:00 0 J/kg -2.4 K 0 % 0 % 0 % 0 m²/s² 0 0 -0.96 3
04:00 0 J/kg -2.5 K 0 % 0 % 0 % 0 m²/s² 0 0 -0.94 3
05:00 0 J/kg -2.8 K 0 % 0 % 0 % 0 m²/s² 0 0 -1.06 3
06:00 0 J/kg -2.5 K 0 % 0 % 0 % 0 m²/s² 0 0 -0.46 3
07:00 249 J/kg -2.6 K 0 % 0 % 0 % 0 m²/s² 0 0 -0.14 45
08:00 1002 J/kg -3.5 K 0 % 0 % 0 % 0 m²/s² 0 0 -0.65 3
09:00 1423 J/kg -4.7 K 0 % 0 % 0 % 0 m²/s² 0 0 -2.15 3
10:00 1594 J/kg -5.0 K 0 % 0 % 0 % 0 m²/s² 0 0 -3.02 3
11:00 1769 J/kg -5.9 K 0 % 0 % 0 % 0 m²/s² 0 0 -4.4 2
12:00 1866 J/kg -6.1 K 0 % 0 % 0 % 0 m²/s² 0 0 -4.6 3
13:00 1969 J/kg -6.1 K 0 % 0 % 0 % 0 m²/s² 0 0 -4.99 80
14:00 1897 J/kg -6.6 K 0 % 0 % 0 % 0 m²/s² 0 0 -5.16 80
15:00 1559 J/kg -5.5 K 0 % 0 % 0 % 0 m²/s² 0 0 -5.05 80
16:00 198 J/kg -1.3 K 0 % 0 % 0 % 0 m²/s² 0 0 -1.3 3
17:00 135 J/kg -0.5 K 0 % 0 % 0 % 0 m²/s² 0 0 -0.47 3
18:00 35 J/kg 0.4 K 0 % 0 % 0 % 0 m²/s² 0 0 1.21 3
19:00 41 J/kg -0.5 K 0 % 0 % 0 % 0 m²/s² 0 0 -0.23 3
20:00 119 J/kg -1.9 K 0 % 0 % 0 % 0 m²/s² 0 0 -1.63 3
21:00 86 J/kg -2.1 K 0 % 0 % 0 % 0 m²/s² 0 0 -2.01 3
22:00 15 J/kg -1.7 K 0 % 0 % 0 % 0 m²/s² 0 0 -0.8 3
23:00 15 J/kg -1.9 K 0 % 0 % 0 % 0 m²/s² 0 0 -1.03 95
 05:05     21:00    Daglengte: 15:55 Zondag 23 Jun
00:00 65 J/kg -2.4 K 0 % 0 % 0 % 0 m²/s² 0 0 -2.19 3
01:00 303 J/kg -2.8 K 0 % 0 % 0 % 0 m²/s² 0 0 -2.59 95
02:00 125 J/kg -1.5 K 0 % 0 % 0 % 0 m²/s² 0 0 -0.18 80
03:00 1 J/kg -1.5 K 0 % 0 % 0 % 0 m²/s² 0 0 0.36 80
04:00 0 J/kg -0.3 K 0 % 0 % 0 % 0 m²/s² 0 0 0.93 3
05:00 0 J/kg -0.3 K 0 % 0 % 0 % 0 m²/s² 0 0 0.18 80
06:00 0 J/kg 0.4 K 0 % 0 % 0 % 0 m²/s² 0 0 1.45 80
07:00 1 J/kg 1.8 K 0 % 0 % 0 % 0 m²/s² 0 0 2.85 80
08:00 12 J/kg 2.3 K 0 % 0 % 0 % 0 m²/s² 0 0 3.53 80
09:00 29 J/kg 2.2 K 0 % 0 % 0 % 0 m²/s² 0 0 3.52
10:00 33 J/kg 1.3 K 0 % 0 % 0 % 0 m²/s² 0 0 2.26
11:00 106 J/kg 0.7 K 0 % 0 % 0 % 0 m²/s² 0 0 1.18
Temp Baro Wind Neerslag
  EWN Forecast EWN WRFDA DWD ICON FMI HIRLAM MET Norway GFS
 05:04     20:59    Daglengte: 15:55 Vandaag
14:00 27.0° 1011.9 hPa 1.8 m/s 0.0 mm 26.1° 1012.5 hPa 1.8 m/s 0.0 mm 26.5° 1011.9 hPa 1.9 m/s -1.9 mm 33.5° 1009.9 hPa 0.9 m/s 0.0 mm 24.9° 1012.7 hPa 2.3 m/s 0.6 mm 27.3° 1011.5 hPa 1.9 m/s
17:00 23.6° 1012.2 hPa 1.5 m/s 1.2 mm 22.0° 1011.6 hPa 3.5 m/s 2.5 mm 23.1° 1012.2 hPa 0.9 m/s 0.6 mm 28.5° 1010.4 hPa 2.0 m/s 0.0 mm 23.7° 1012.7 hPa 0.8 m/s 0.0 mm 22.7° 1010.9 hPa 0.6 m/s
20:00 21.4° 1013.2 hPa 1.5 m/s 0.0 mm 17.3° 1013.7 hPa 4.4 m/s 9.2 mm 20.3° 1013.5 hPa 1.4 m/s 0.1 mm 22.8° 1011.9 hPa 1.5 m/s 0.0 mm 21.9° 1013.3 hPa 0.2 m/s 0.0 mm 16.9° 1012.7 hPa 1.8 m/s
23:00 17.6° 1014.8 hPa 0.8 m/s 4.7 mm 15.9° 1013.6 hPa 2.0 m/s 15.6 mm 16.3° 1015.0 hPa 0.2 m/s 0.1 mm 17.8° 1014.6 hPa 0.6 m/s 0.0 mm 17.9° 1015.4 hPa 1.1 m/s 1.5 mm 15.3° 1014.5 hPa 2.2 m/s
 05:04     21:00    Daglengte: 15:56 Morgen
02:00 15.7° 1015.7 hPa 1.1 m/s 4.9 mm 13.3° 1014.9 hPa 2.0 m/s 15.6 mm 14.7° 1016.1 hPa 1.3 m/s 2.5 mm 16.1° 1014.9 hPa 1.3 m/s 0.0 mm 15.7° 1016.1 hPa 0.9 m/s 1.3 mm 14.5° 1015.8 hPa 1.9 m/s
05:00 14.4° 1016.0 hPa 1.2 m/s 5.1 mm 12.4° 1014.5 hPa 2.1 m/s 15.6 mm 14.0° 1016.6 hPa 1.0 m/s 1.3 mm 14.9° 1015.5 hPa 1.3 m/s 0.0 mm 14.1° 1016.6 hPa 1.2 m/s 1.5 mm 15.0° 1016.0 hPa 1.8 m/s
08:00 18.4° 1016.7 hPa 1.0 m/s 3.1 mm 18.6° 1015.2 hPa 1.7 m/s 15.6 mm 17.7° 1016.9 hPa 1.0 m/s 0.0 mm 19.7° 1016.2 hPa 3.0 m/s 0.0 mm 18.3° 1017.8 hPa 0.4 m/s 0.4 mm 17.8° 1016.8 hPa 1.5 m/s
11:00 21.6° 1016.8 hPa 0.7 m/s 4.6 mm 22.7° 1016.0 hPa 1.4 m/s 15.6 mm 20.8° 1016.7 hPa 0.5 m/s 0.3 mm 21.8° 1016.6 hPa 3.8 m/s 0.0 mm 22.2° 1017.7 hPa 0.2 m/s 0.0 mm 22.4° 1016.6 hPa 1.0 m/s
14:00 22.3° 1016.3 hPa 0.9 m/s 5.4 mm 24.9° 1015.2 hPa 0.2 m/s 15.6 mm 20.5° 1017.0 hPa 0.8 m/s 0.5 mm 25.7° 1015.5 hPa 3.4 m/s 0.0 mm 21.2° 1017.2 hPa 0.7 m/s 3.3 mm 23.7° 1015.6 hPa 0.6 m/s
17:00 23.2° 1015.9 hPa 1.0 m/s 2.6 mm 24.6° 1015.2 hPa 1.2 m/s 16.2 mm 19.8° 1016.5 hPa 0.4 m/s 5.2 mm 26.8° 1014.6 hPa 2.3 m/s 0.0 mm 23.1° 1016.1 hPa 0.6 m/s 0.0 mm 21.3° 1015.0 hPa 1.3 m/s
20:00 20.1° 1016.8 hPa 1.3 m/s 0.0 mm 17.5° 1015.7 hPa 5.8 m/s 41.6 mm 18.9° 1017.1 hPa 0.8 m/s 0.4 mm 23.6° 1015.4 hPa 1.0 m/s 0.0 mm 20.7° 1017.0 hPa 0.9 m/s 0.5 mm 19.6° 1015.4 hPa 0.6 m/s
23:00 16.5° 1018.3 hPa 1.2 m/s 0.0 mm 15.5° 1017.0 hPa 1.6 m/s 91.5 mm 15.3° 1018.9 hPa 0.8 m/s 0.0 mm 16.6° 1018.0 hPa 1.0 m/s 0.0 mm 17.6° 1018.3 hPa 1.2 m/s 0.0 mm 16.7° 1017.0 hPa 1.1 m/s
 05:04     21:00    Daglengte: 15:56 Zaterdag 22 Jun
02:00 14.9° 1018.4 hPa 0.9 m/s 0.0 mm 14.2° 1017.1 hPa 2.1 m/s 91.7 mm 14.4° 1019.2 hPa 0.5 m/s 0.0 mm 14.5° 1018.0 hPa 0.5 m/s 0.0 mm 16.2° 1018.4 hPa 0.8 m/s 0.0 mm 16.6° 1017.1 hPa 0.7 m/s
05:00 14.5° 1018.7 hPa 0.9 m/s 0.0 mm 14.7° 1016.5 hPa 1.3 m/s 91.7 mm 12.8° 1019.8 hPa 0.4 m/s 0.0 mm 15.1° 1018.7 hPa 0.9 m/s 0.0 mm 15.0° 1016.6 hPa 0.7 m/s
08:00 17.9° 1019.1 hPa 1.0 m/s 0.0 mm 19.3° 1016.8 hPa 1.9 m/s 91.7 mm 16.2° 1020.0 hPa 0.6 m/s 0.0 mm 18.1° 1019.3 hPa 1.0 m/s 0.0 mm 19.2° 1017.0 hPa 1.0 m/s
11:00 20.4° 1018.3 hPa 1.6 m/s 0.0 mm 22.5° 1017.0 hPa 4.4 m/s 92.0 mm 20.2° 1018.8 hPa 1.8 m/s 0.1 mm 19.2° 1018.5 hPa 1.3 m/s 21.6° 1015.5 hPa 2.0 m/s
14:00 20.7° 1017.4 hPa 2.4 m/s 13.1 mm 21.6° 1015.8 hPa 5.6 m/s 93.4 mm 20.4° 1018.2 hPa 2.3 m/s 0.7 mm 20.3° 1017.8 hPa 1.6 m/s 22.7° 1014.3 hPa 2.1 m/s
17:00 19.2° 1016.9 hPa 1.7 m/s 32.9 mm 17.4° 1016.4 hPa 2.5 m/s 107.0 mm 19.3° 1017.1 hPa 1.8 m/s 0.3 mm 19.1° 1017.2 hPa 1.1 m/s 20.3° 1013.2 hPa 1.6 m/s
20:00 18.1° 1016.4 hPa 1.0 m/s 42.6 mm 19.1° 1014.5 hPa 0.9 m/s 113.0 mm 17.8° 1017.3 hPa 1.2 m/s 0.0 mm 18.0° 1016.6 hPa 0.6 m/s 18.6° 1013.4 hPa 0.7 m/s
23:00 16.9° 1016.3 hPa 0.9 m/s 35.9 mm 17.8° 1013.5 hPa 2.1 m/s 113.6 mm 15.5° 1017.1 hPa 0.9 m/s 0.8 mm 17.0° 1016.5 hPa 0.5 m/s 15.7° 1014.4 hPa 1.0 m/s
 05:05     21:00    Daglengte: 15:55 Zondag 23 Jun
02:00 16.0° 1016.3 hPa 0.8 m/s 26.4 mm 17.0° 1013.5 hPa 1.1 m/s 114.7 mm 14.9° 1017.1 hPa 0.9 m/s 1.3 mm 16.0° 1016.5 hPa 0.4 m/s 15.2° 1014.7 hPa 1.7 m/s
05:00 15.8° 1016.3 hPa 0.8 m/s 26.2 mm 13.2° 1013.1 hPa 2.3 m/s 116.4 mm 14.7° 1017.2 hPa 0.6 m/s 0.6 mm 17.1° 1016.6 hPa 0.7 m/s 15.0° 1015.3 hPa 2.3 m/s
08:00 17.6° 1016.7 hPa 1.2 m/s 39.9 mm 17.7° 1013.8 hPa 3.2 m/s 116.4 mm 15.5° 1018.8 hPa 0.7 m/s 1.6 mm 18.2° 1016.7 hPa 1.0 m/s 17.7° 1016.4 hPa 2.3 m/s
11:00 19.9° 1016.7 hPa 1.6 m/s 116.6 mm 19.7° 1015.4 hPa 2.7 m/s 116.6 mm 19.9° 1017.0 hPa 1.4 m/s 22.6° 1017.4 hPa 2.5 m/s
14:00 21.7° 1017.0 hPa 2.0 m/s 118.4 mm 22.3° 1015.7 hPa 2.7 m/s 118.4 mm 21.6° 1017.2 hPa 1.9 m/s 22.9° 1017.4 hPa 2.5 m/s
17:00 20.2° 1018.6 hPa 1.9 m/s 46.6 mm 19.9° 1018.7 hPa 1.8 m/s 23.0° 1017.2 hPa 3.0 m/s 46.6 mm
20:00 19.1° 1019.5 hPa 1.8 m/s 46.8 mm 19.1° 1019.5 hPa 1.8 m/s 18.9° 1019.0 hPa 2.3 m/s 46.8 mm
23:00 17.4° 1020.5 hPa 1.7 m/s 46.8 mm 17.6° 1020.4 hPa 1.6 m/s 15.5° 1021.3 hPa 2.5 m/s 46.8 mm
 05:05     21:00    Daglengte: 15:55 Maandag 24 Jun
02:00 16.0° 1021.4 hPa 1.6 m/s 46.8 mm 16.1° 1021.3 hPa 1.5 m/s 15.1° 1021.9 hPa 2.2 m/s 46.8 mm
05:00 16.9° 1021.8 hPa 1.7 m/s 46.8 mm 17.1° 1021.8 hPa 1.7 m/s 14.5° 1021.5 hPa 2.2 m/s 46.8 mm
08:00 18.3° 1022.4 hPa 1.9 m/s 46.8 mm 18.2° 1022.4 hPa 1.9 m/s 19.1° 1022.3 hPa 1.9 m/s 46.8 mm
11:00 21.5° 1022.1 hPa 2.4 m/s 46.8 mm 21.2° 1022.1 hPa 2.5 m/s 25.0° 1022.2 hPa 1.9 m/s 46.8 mm
14:00 24.4° 1021.8 hPa 2.9 m/s 46.8 mm 24.2° 1021.8 hPa 3.0 m/s 26.4° 1021.4 hPa 1.7 m/s 46.8 mm
17:00 22.9° 1022.5 hPa 2.1 m/s 46.8 mm 22.6° 1022.6 hPa 2.1 m/s 26.1° 1021.0 hPa 2.1 m/s 46.8 mm
20:00 21.1° 1023.3 hPa 1.3 m/s 46.8 mm 21.1° 1023.4 hPa 1.3 m/s 21.6° 1022.1 hPa 1.2 m/s 46.8 mm
23:00 17.7° 1024.2 hPa 1.3 m/s 46.8 mm 17.8° 1024.2 hPa 1.3 m/s 16.6° 1024.5 hPa 1.7 m/s 46.8 mm
 05:05     21:00    Daglengte: 15:55 Dinsdag 25 Jun
02:00 14.5° 1024.9 hPa 1.3 m/s 46.8 mm 14.4° 1024.9 hPa 1.3 m/s 15.4° 1024.6 hPa 1.8 m/s 46.8 mm
05:00 16.7° 1025.2 hPa 0.9 m/s 46.8 mm 16.9° 1025.3 hPa 0.8 m/s 14.7° 1024.1 hPa 1.6 m/s 46.8 mm
08:00 19.5° 1025.6 hPa 0.4 m/s 46.8 mm 19.4° 1025.7 hPa 0.3 m/s 21.1° 1024.7 hPa 0.9 m/s 46.8 mm
11:00 23.1° 1025.1 hPa 0.9 m/s 46.8 mm 22.6° 1025.2 hPa 0.9 m/s 28.7° 1024.2 hPa 0.9 m/s 46.8 mm
14:00 26.2° 1024.5 hPa 1.6 m/s 46.8 mm 25.8° 1024.6 hPa 1.6 m/s 30.6° 1023.7 hPa 1.5 m/s 46.8 mm
17:00 25.1° 1024.6 hPa 1.3 m/s 46.8 mm 24.6° 1024.8 hPa 1.3 m/s 29.6° 1023.0 hPa 1.3 m/s 46.8 mm
20:00 23.5° 1024.8 hPa 1.0 m/s 46.8 mm 23.5° 1024.9 hPa 1.0 m/s 23.8° 1024.2 hPa 0.7 m/s 46.8 mm
23:00 20.0° 1025.8 hPa 0.7 m/s 46.8 mm 20.1° 1025.7 hPa 0.7 m/s 18.1° 1026.4 hPa 0.7 m/s 46.8 mm
 05:06     21:00    Daglengte: 15:54 Woensdag 26 Jun
02:00 16.8° 1026.5 hPa 0.5 m/s 46.8 mm 16.8° 1026.5 hPa 0.4 m/s 16.6° 1026.3 hPa 1.6 m/s 46.8 mm
05:00 18.5° 1026.6 hPa 0.4 m/s 46.8 mm 18.9° 1026.6 hPa 0.3 m/s 15.2° 1026.1 hPa 2.0 m/s 46.8 mm
08:00 20.9° 1026.6 hPa 0.3 m/s 46.8 mm 20.9° 1026.7 hPa 0.2 m/s 21.1° 1025.9 hPa 1.2 m/s 46.8 mm
11:00 24.8° 1025.6 hPa 1.5 m/s 46.8 mm 24.4° 1025.7 hPa 1.5 m/s 28.6° 1025.1 hPa 1.1 m/s 46.8 mm
14:00 28.3° 1024.5 hPa 2.8 m/s 46.8 mm 28.0° 1024.6 hPa 2.9 m/s 31.6° 1023.9 hPa 1.2 m/s 46.8 mm
17:00 26.8° 1023.8 hPa 1.9 m/s 46.8 mm 26.4° 1023.9 hPa 2.0 m/s 30.1° 1022.6 hPa 1.2 m/s 46.8 mm
20:00 24.8° 1023.3 hPa 1.1 m/s 46.8 mm 24.9° 1023.3 hPa 1.1 m/s 23.5° 1022.9 hPa 1.0 m/s 46.8 mm
23:00 21.0° 1023.5 hPa 0.7 m/s 46.8 mm 21.3° 1023.4 hPa 0.8 m/s 17.8° 1024.1 hPa 0.3 m/s 46.8 mm
 05:06     21:00    Daglengte: 15:54 Donderdag 27 Jun
02:00 17.6° 1023.5 hPa 0.4 m/s 46.8 mm 17.7° 1023.5 hPa 0.4 m/s 16.4° 1024.0 hPa 0.6 m/s 46.8 mm
05:00 19.3° 1023.0 hPa 0.3 m/s 46.8 mm 19.7° 1023.0 hPa 0.2 m/s 15.3° 1023.0 hPa 0.5 m/s 46.8 mm
08:00 21.7° 1022.4 hPa 0.1 m/s 46.8 mm 21.7° 1022.4 hPa 0.1 m/s 21.9° 1022.9 hPa 0.4 m/s 46.8 mm
11:00 26.2° 1020.9 hPa 1.1 m/s 46.8 mm 26.1° 1020.8 hPa 1.1 m/s 27.3° 1022.0 hPa 1.6 m/s 46.8 mm
14:00 30.5° 1019.4 hPa 2.0 m/s 46.8 mm 30.5° 1019.3 hPa 2.0 m/s 30.2° 1020.6 hPa 1.9 m/s 46.8 mm
20:00 26.3° 1018.7 hPa 0.6 m/s 46.9 mm 26.5° 1018.6 hPa 0.5 m/s 23.7° 1019.7 hPa 1.5 m/s 46.9 mm
 05:07     21:00    Daglengte: 15:53 Vrijdag 28 Jun
02:00 18.4° 1019.6 hPa 1.1 m/s 46.9 mm 18.5° 1019.5 hPa 1.2 m/s 17.3° 1020.3 hPa 0.3 m/s 46.9 mm
08:00 23.6° 1019.2 hPa 0.8 m/s 46.9 mm 23.8° 1019.3 hPa 0.8 m/s 21.9° 1018.6 hPa 0.6 m/s 46.9 mm
14:00 34.1° 1016.5 hPa 1.2 m/s 46.9 mm 34.5° 1016.5 hPa 1.1 m/s 29.2° 1016.0 hPa 2.7 m/s 46.9 mm
20:00 28.8° 1015.7 hPa 0.7 m/s 46.9 mm 29.3° 1015.7 hPa 0.6 m/s 23.4° 1015.2 hPa 1.8 m/s 46.9 mm
 05:07     21:00    Daglengte: 15:53 Zaterdag 29 Jun
02:00 20.4° 1016.5 hPa 1.0 m/s 46.9 mm 20.7° 1016.6 hPa 1.0 m/s 16.6° 1015.9 hPa 0.7 m/s 46.9 mm
08:00 20.9° 1014.8 hPa 1.1 m/s 46.9 mm 20.9° 1014.8 hPa 1.1 m/s 46.9 mm
14:00 28.4° 1013.3 hPa 1.1 m/s 47.9 mm 28.4° 1013.3 hPa 1.1 m/s 47.9 mm
20:00 24.0° 1013.5 hPa 0.8 m/s 50.2 mm 24.0° 1013.5 hPa 0.8 m/s 50.2 mm
 05:08     21:00    Daglengte: 15:52 Zondag 30 Jun
02:00 20.4° 1015.2 hPa 2.1 m/s 53.5 mm 20.4° 1015.2 hPa 2.1 m/s 53.5 mm
08:00 22.2° 1015.4 hPa 0.9 m/s 1.9 mm
14:00 29.7° 1014.2 hPa 0.2 m/s 2.3 mm
20:00 24.4° 1013.9 hPa 0.2 m/s 2.9 mm
 05:08     21:00    Daglengte: 15:52 Maandag 01 Jul
02:00 18.4° 1014.7 hPa 0.9 m/s 1.0 mm
08:00 21.7° 1014.3 hPa 0.8 m/s 0.5 mm
14:00 27.6° 1012.6 hPa 0.2 m/s 2.5 mm
20:00 22.4° 1012.2 hPa 0.4 m/s 4.0 mm
 05:09     20:59    Daglengte: 15:50 Dinsdag 02 Jul
02:00 17.2° 1013.0 hPa 1.0 m/s 4.4 mm
08:00 18.9° 1012.9 hPa 1.1 m/s 3.5 mm
14:00 22.8° 1012.1 hPa 0.7 m/s 4.3 mm
20:00 19.9° 1012.1 hPa 0.5 m/s 3.8 mm
 05:10     20:59    Daglengte: 15:49 Woensdag 03 Jul
02:00 16.2° 1012.9 hPa 0.9 m/s 4.2 mm
08:00 17.1° 1013.1 hPa 1.0 m/s 5.8 mm
14:00 20.9° 1012.6 hPa 0.6 m/s 3.9 mm
20:00 18.7° 1012.4 hPa 0.2 m/s 3.2 mm
 05:10     20:59    Daglengte: 15:49 Donderdag 04 Jul
02:00 14.8° 1013.4 hPa 0.7 m/s 2.7 mm
08:00 16.9° 1014.2 hPa 1.1 m/s 1.0 mm
14:00 22.5° 1013.4 hPa 0.5 m/s 1.5 mm
20:00 19.1° 1013.6 hPa 0.3 m/s 2.7 mm
 05:11     20:58    Daglengte: 15:47 Vrijdag 05 Jul
02:00 14.5° 1015.1 hPa 0.7 m/s 0.6 mm
08:00 16.9° 1015.6 hPa 0.9 m/s 0.6 mm
FMI Hirlam - 7.5 km EWN WRFDA - 12 km DWD ICON - 7 km GFS - 25 km Basiskaart






























































Updatetijd (Europe/Amsterdam) Resolutie Lengte Stap
FMI Hirlam 07:00, 13:00, 19:00, 01:00 7.5 km 49h 1h
EWN WRFDA 10:00, 16:00, 22:00, 04:00 12 km 73h 1h
DWD ICON 11:45, 17:45, 23:45, 05:45 7 km 75h 1h
GFS 08:45, 14:45, 20:45, 02:45 25 km 237h 3h
30+ mm
25-30 mm
20-25 mm
15-20 mm
10-15 mm
6-10 mm
4-6 mm